Regional Weather Roundup
Issued by NWS

Home | Current Version | Previous Version | Text Only | Print | Product List | Glossary Off
Versions: 1 2 3 4 5 6 7 8 9 10 11 12 13 14 15 16 17 18 19 20 21 22 23 24 25 26 27 28 29 30 31 32 33 34 35 36 37 38 39 40 41 42 43 44 45 46 47 48 49 50

000
ASUS45 KCYS 191710
RWRWY

WYOMING REGIONAL WEATHER ROUNDUP
NATIONAL WEATHER SERVICE CHEYENNE WY
1000 AM MST SUN FEB 19 2017

NOTE:  "FAIR" INDICATES FEW OR NO CLOUDS BELOW 12,000 FEET
WITH NO SIGNIFICANT WEATHER AND/OR OBSTRUCTIONS TO VISIBILITY.

WYZ001-191800-
YELLOWSTONE NATIONAL PARK

CITY           SKY/WX    TMP DP  RH WIND       PRES   REMARKS
LK YELLOWSTONE   N/A     31  29  92 VRB3      29.61F
W YELLOWSTONE  NOT AVBL

$$
WYZ002>013-054>058-071-098>099-191800-
NORTHERN WYOMING

CITY           SKY/WX    TMP DP  RH WIND       PRES   REMARKS
JACKSON        PTSUNNY   34  32  93 S7        29.62R WCI  28
CODY           PTSUNNY   48  28  46 W8G20     29.51R
GREYBULL       FAIR      47  32  56 S7        29.50R
WORLAND        FAIR      45  34  65 S20       29.49F
SHERIDAN       FAIR      40  31  70 W7        29.43F
BUFFALO        FAIR      57  28  33 S21       29.47S
GILLETTE       FAIR      52  33  48 SW20G30   29.49F
HULETT         FAIR      52  32  46 SW18G24   29.52F
NEWCASTLE      FAIR      50  28  43 SE6       29.58F

$$
WYZ014>020-022>026-101>103-191800-
CENTRAL WYOMING

CITY           SKY/WX    TMP DP  RH WIND       PRES   REMARKS
BIG PINEY      CLOUDY    33  32  96 S12       29.65S WCI  24
PINEDALE       LGT SNOW  32  32 100 S13       29.66S WCI  22
DUBOIS         CLOUDY    36  30  80 E7        29.55F WCI  30
LANDER         FAIR      38  31  76 E6        29.54S WCI  33
RIVERTON       FAIR      39  32  76 NW5       29.55S
CASPER         FAIR      49  31  49 SW23G35   29.58F
DOUGLAS        FAIR      56  30  37 SW7       29.62R

$$
WYZ021-027>030-104>119-191800-
SOUTHERN WYOMING

CITY           SKY/WX    TMP DP  RH WIND       PRES   REMARKS
EVANSTON       HVY SNOW  33  30  88 W16       29.69S VSB 1/4 WCI  23
KEMMERER       SNOW      34  32  93 SW10      29.67F VSB 1/4 WCI  26
FORT BRIDGER   FLURRIES  35  34  95 W12       29.72R WCI  27
ROCK SPRINGS   FAIR      42  31  64 S5        29.65R
DIXON            N/A     41  34  76 CALM      29.73F
RAWLINS        FAIR      46  31  55 SW21G35   29.66F
SARATOGA       CLOUDY    45  30  57 SE8       29.71F
LARAMIE        FAIR      38  27  64 CALM      29.73R
CHEYENNE       FAIR      51  27  39 S9        29.70S
TORRINGTON     FAIR      46  31  55 CALM      29.65R
PINE BLUFFS    FAIR      46  32  57 S9        29.70S

$$



USA.gov is the U.S. government's official web portal to all federal, state and local government web resources and services.